Location: Rounton
(54.4000°N, 1.3500°W)
Time: 14:26:18
(UTC+00:00)

Transit 2A Rocket - Pass Details

Date: 04 December 2021
Orbit: 584 x 918 km, 66.7° (Epoch: 17 January)

Event Time Altitude Azimuth Distance (km) Brightness Sun altitude
Rises 14:58:10 0° 316° (NW) 3,564 8.4 3.9°
Reaches altitude 10° 15:00:45 10° 320° (NW) 2,623 7.7 3.6°
Maximum altitude 15:06:53 65° 42° (NE) 992 5.5 3.0°
Drops below altitude 10° 15:12:46 10° 125° (SE) 2,522 7.6 2.4°
Sets 15:15:13 0° 128° (SE) 3,418 8.3 2.2°
